This demonstration page uses our WeatherBlox Daily Observations layout. Learn more.

Left ArrowRight Arrow

44.8408, -93.29828

Hourly Observations for May 20, 2015

Temp ( °F °C ) Dew Point ( °F °C ) Humidity (%) Winds ( mph kmh ) Pressure ( in mb ) Visibility ( mi km ) Precip ( " mm )
12:53 am 00:53 Clear 46 7.8 35 1.7 66 66 Calm 30.26 1025 10 16 0.00 0.00
1:53 am 01:53 Mostly Clear 42 5.6 37 2.8 82 82 Calm 30.26 1025 10 16 0.00 0.00
2:53 am 02:53 Partly Cloudy 42 5.6 37 2.8 82 82 Calm 30.25 1024 10 16 0.00 0.00
3:53 am 03:53 Partly Cloudy 43 6.1 36 2.2 76 76 Calm 30.25 1024 8 13 0.00 0.00
4:53 am 04:53 Mostly Cloudy 42 5.6 36 2.2 79 79 Calm 30.24 1024 8 13 0.00 0.00
5:53 am 05:53 Mostly Cloudy with Patchy Fog 42 5.6 38 3.3 85 85 Calm 30.24 1024 7 11 0.00 0.00
6:53 am 06:53 Mostly Cloudy with Patchy Fog 45 7.2 40 4.4 83 83 Calm 30.25 1024 8 13 0.00 0.00
7:53 am 07:53 Mostly Cloudy 48 8.9 38 3.3 68 68 Calm 30.27 1025 8 13 0.00 0.00
8:53 am 08:53 Mostly Cloudy 52 11.1 35 1.7 53 53 Calm 30.27 1025 8 13 0.00 0.00
9:53 am 09:53 Mostly Cloudy 54 12.2 27 -2.8 35 35 VRB 6 9 30.26 1025 10 16 0.00 0.00
10:53 am 10:53 Cloudy 55 12.8 27 -2.8 34 34 Calm 30.26 1025 10 16 0.00 0.00
11:53 am 11:53 Cloudy 56 13.3 28 -2.2 34 34 NW 8 13 30.26 1025 10 16 0.00 0.00
12:53 pm 12:53 Cloudy 56 13.3 28 -2.2 34 34 WNW 7 11 30.25 1024 10 16 0.00 0.00
1:53 pm 13:53 Cloudy 59 15 28 -2.2 31 31 WNW 10 17 30.23 1024 10 16 0.00 0.00
2:53 pm 14:53 Mostly Cloudy 60 15.6 26 -3.3 27 27 WNW 10 17 30.21 1023 10 16 0.00 0.00
3:53 pm 15:53 Cloudy 60 15.6 29 -1.7 31 31 WNW 10 17 30.20 1023 10 16 0.00 0.00
4:53 pm 16:53 Mostly Cloudy 60 15.6 29 -1.7 31 31 W 13 20 30.17 1022 10 16 0.00 0.00
5:53 pm 17:53 Mostly Cloudy 61 16.1 29 -1.7 30 30 NNW 7 11 30.16 1021 10 16 0.00 0.00
6:53 pm 18:53 Mostly Cloudy 60 15.6 29 -1.7 31 31 WSW 9 15 30.13 1020 10 16 0.00 0.00
7:53 pm 19:53 Mostly Sunny 58 14.4 29 -1.7 33 33 W 9 15 30.13 1020 10 16 0.00 0.00
8:53 pm 20:53 Mostly Clear 57 13.9 28 -2.2 33 33 WSW 6 9 30.12 1020 10 16 0.00 0.00
9:53 pm 21:53 Clear 55 12.8 30 -1.1 38 38 SW 6 9 30.12 1020 10 16 0.00 0.00
10:53 pm 22:53 Clear 53 11.7 30 -1.1 41 41 SW 7 11 30.12 1020 10 16 0.00 0.00
11:53 pm 23:53 Clear 51 10.6 30 -1.1 44 44 SW 7 11 30.11 1020 10 16 0.00 0.00

Powered by AerisWeather